Starlink 32122

operational
NORAD ID: 60285 Int'l Des: 2024-132 Owner: SPXS Country: US Constellation: starlink
LEOCIRCULAR

About Starlink 32122

Description loading...

Live Position

Loading 3D Globe...

Upcoming Passes

Altitude History

Altitude vs Time

uPlot chart will show altitude changes over time

Two-Line Element Set

1 60285U 24132H 25308.17835670 -.00000340 00000-0 63516-6 0 9993
2 60285 53.1610 275.4477 0001313 90.9908 269.1244 15.30194846 72343
Epoch: Nov 4, 2025 • Age: 23 hours

Current Status

Altitude 485.1 km
Velocity 7.62 km/s
Sub-Earth Point -30.23°S, 146.2°E
Launch Date Jul 28, 2024
Age 1.2 years
Type internet

Technical Details

Classification Payload
Mass 730.00 kg
Dry Mass 700.00 kg
Total Mass 730.00 kg
Length 0.30 m
Diameter 4.10 m
Span 29.00 m
Shape Box + pan
Manufacturer SPXS
Bus Type Starlink V2M
Phase Status In Orbit
Owner/State SPXS/US

Large Constellations

Loading constellations...